{"data":{"norad_id":62248,"intl_designator":"2024-232M","name":"QIANFAN-47","alt_names":[],"object_type":"PAYLOAD","status":"ACTIVE","operator":null,"country":"PRC","launch_date":"2024-12-05","launch_site_code":"TAISC","launch_vehicle":null,"mission":null,"orbit_class":"UNKNOWN","rcs_meters":null,"size_class":null,"mass_kg":null,"dimensions":null,"purposes":[],"wikipedia_slug":null,"has_3d_model":false,"image_url":null,"decayed_at":null,"tle_current":{"epoch":"2026-09-22T22:06:12.803328Z","epoch_age_seconds":100800,"freshness":"FRESH","line1":"1 62248U 24232M   26265.92098152  .00000101  00000+0  13761-3 0  9994","line2":"2 62248  89.0163  12.6994 0016794  98.0084 262.2973 13.51029538137614","mean_motion":13.51029538,"eccentricity":0.0016794,"inclination_deg":89.0163,"raan_deg":12.6994,"arg_perigee_deg":98.0084,"mean_anomaly_deg":262.2973,"bstar":0.00013761,"rev_number":13761,"period_min":106.58538244336,"perigee_km":1055.9672079135,"apogee_km":1080.978881732,"semimajor_km":7446.6100448228,"source":"CELESTRAK","updated_at":"2026-09-23T09:00:21.335810Z"}}}